Location: Asheville, NC
(35.6000°N, 82.5500°W)
Time: 08:52:38
(UTC-05:00)

Envisat - Pass Details

Date: 18 February 2018
Orbit: 764 x 766 km, 98.2° (Epoch: 19 February)

Event Time Altitude Azimuth Distance (km) Brightness Sun altitude
Exits shadow 20:43:04 - 193° (SSW) 2,571 5.8 -30.7°
Reaches altitude 10° 20:43:50 10° 197° (SSW) 2,290 5.5 -30.8°
Maximum altitude 20:48:26 35° 262° (W) 1,209 4.4 -31.7°
Drops below altitude 10° 20:53:05 10° 328° (NNW) 2,303 5.9 -32.7°
Sets 20:55:35 0° 338° (NNW) 3,233 6.6 -33.2°
